カタログに戻る

ONEWEB-0180

運用中通信PO
NORAD 48213·PAYLOAD·🇬🇧 United Kingdom

打ち上げ Apr 25, 2021 から Vostochny Cosmodrome

Loading…

次のパス (今後24時間)

TLE

最新Source: CelesTrak SupGP

元期: Sep 14, 2026, 16:17 UTC

1 48213C 21031D   26257.67900880 -.00002089  00000+0 -56430-2 0  2572
2 48213  87.8895 271.8568 0001557  87.5044 313.2687 13.14502908    12

AllMySatでONEWEB-0180をリアルタイム追跡

Download on the App Store